period_start,C,m1,H,J0,J1,J2,J3,J4,J5,JA,JB,JC,JD,JJ,JK,JN,#
2016-07-10 00:03:18,0.00,0.13,0.00,17.69,23.57,27.34,14.81,47.08,1006.89,2053.99,3552.00,3129.00,3547.04,600.20,601.26,15.61,0000 0000 0000 0000 000000
2016-07-10 00:08:19,0.00,0.13,0.00,17.71,23.57,27.34,14.80,47.12,1006.93,2053.99,3552.01,3129.00,3547.04,600.13,601.10,15.66,0000 0000 0000 0000 000000
2016-07-10 00:13:20,0.00,0.13,0.00,17.66,23.57,27.33,14.76,47.28,1006.99,2053.99,3552.00,3129.00,3547.01,600.03,601.24,15.71,0000 0000 0000 0000 000000
2016-07-10 00:18:22,0.04,0.13,0.00,17.66,23.57,27.33,14.77,47.10,1007.16,2053.99,3551.63,3128.62,3546.63,599.88,601.26,15.76,0000 0000 0000 0000 000000
2016-07-10 00:23:23,0.01,0.13,0.00,17.66,23.56,27.34,14.85,47.26,1007.29,2053.99,3551.04,3128.04,3546.05,600.43,601.67,15.82,0000 0000 0000 0000 000000
2016-07-10 00:28:24,0.00,0.13,0.00,17.66,23.55,27.33,14.76,47.17,1007.28,2053.99,3551.02,3128.02,3546.10,600.20,601.53,15.87,0000 0000 0000 0000 000000
2016-07-10 00:33:25,0.00,0.13,0.00,17.66,23.55,27.32,14.77,47.25,1007.22,2053.99,3551.00,3128.03,3546.03,599.90,601.19,15.92,0000 0000 0000 0000 000000
2016-07-10 00:38:27,0.00,0.13,0.00,17.71,23.55,27.34,14.75,47.20,1007.28,2054.00,3551.00,3128.04,3546.05,599.97,601.32,15.97,0000 0000 0000 0000 000000
2016-07-10 00:43:28,0.00,0.13,0.00,17.67,23.55,27.34,14.82,47.33,1007.31,2054.01,3551.01,3128.05,3546.05,600.34,601.69,16.02,0000 0000 0000 0000 000000
2016-07-10 00:48:30,0.00,0.13,0.00,17.65,23.55,27.29,14.81,47.37,1007.30,2054.01,3551.03,3128.03,3546.03,599.95,601.37,16.07,0000 0000 0000 0000 000000
2016-07-10 00:53:31,0.00,0.13,0.00,17.70,23.54,27.35,14.78,47.41,1007.29,2054.00,3551.01,3128.04,3546.01,599.96,601.34,16.12,0000 0000 0000 0000 000000
2016-07-10 00:58:32,0.00,0.13,0.00,17.66,23.53,27.23,14.82,47.12,1007.30,2054.00,3551.04,3128.07,3546.03,600.05,601.64,16.17,0000 0000 0000 0000 000000
2016-07-10 01:03:34,0.00,0.13,0.00,17.68,23.52,27.33,14.76,47.17,1007.28,2054.01,3551.07,3128.08,3546.05,599.87,601.25,16.22,0000 0000 0000 0000 000000
2016-07-10 01:08:35,0.00,0.13,0.00,17.67,23.52,27.30,14.76,47.14,1007.29,2054.00,3551.07,3128.07,3546.02,600.21,601.61,16.27,0000 0000 0000 0000 000000
2016-07-10 01:13:36,0.00,0.13,0.00,17.67,23.52,27.31,14.82,47.11,1007.23,2054.00,3551.05,3128.07,3546.06,599.96,601.30,16.32,0000 0000 0000 0000 000000
2016-07-10 01:18:38,0.00,0.13,0.00,17.69,23.52,27.30,14.84,47.05,1007.21,2054.01,3550.93,3128.02,3546.01,600.02,601.29,16.37,0000 0000 0000 0000 000000
2016-07-10 01:23:39,0.01,0.13,0.00,17.69,23.52,27.32,14.74,47.12,1007.22,2054.01,3550.20,3128.00,3545.93,600.19,601.52,16.42,0000 0000 0000 0000 000000
2016-07-10 01:28:40,-0.00,0.13,0.00,17.66,23.52,27.31,14.84,47.13,1007.20,2054.00,3550.06,3127.98,3545.93,600.11,601.51,16.47,0000 0000 0000 0000 000000
2016-07-10 01:33:41,-0.00,0.13,0.00,17.66,23.52,27.30,14.81,47.28,1007.19,2054.02,3550.05,3127.97,3545.96,600.18,601.45,16.52,0000 0000 0000 0000 000000
2016-07-10 01:38:43,-0.00,0.13,0.00,17.67,23.52,27.31,14.82,47.21,1007.29,2054.03,3550.08,3127.99,3545.96,600.43,601.79,16.57,0000 0000 0000 0000 000000
2016-07-10 01:43:44,0.00,0.13,0.00,17.70,23.51,27.22,14.81,47.02,1007.31,2054.02,3550.05,3127.97,3545.79,600.07,601.45,16.62,0000 0000 0000 0000 000000
2016-07-10 01:48:45,0.00,0.13,0.00,17.70,23.50,27.24,14.75,47.06,1007.29,2054.00,3550.04,3127.97,3545.53,599.94,601.30,16.67,0000 0000 0000 0000 000000
2016-07-10 01:53:46,-0.00,0.13,0.00,17.69,23.50,27.28,14.73,47.15,1007.25,2054.01,3550.13,3127.97,3545.72,599.84,601.16,16.72,0000 0000 0000 0000 000000
2016-07-10 01:58:47,-0.00,0.13,0.00,17.71,23.50,27.22,14.83,47.01,1007.18,2054.01,3550.29,3127.99,3545.91,600.44,601.59,16.77,0000 0000 0000 0000 000000
2016-07-10 02:03:49,0.00,0.13,0.00,17.68,23.50,27.25,14.85,47.19,1007.26,2054.04,3550.29,3127.99,3545.95,600.31,601.70,16.82,0000 0000 0000 0000 000000
2016-07-10 02:08:50,0.00,0.13,0.00,17.64,23.50,27.28,14.78,47.04,1007.28,2054.03,3550.28,3127.99,3545.95,599.94,601.37,16.87,0000 0000 0000 0000 000000
2016-07-10 02:13:51,-0.00,0.13,0.00,17.66,23.50,27.30,14.82,47.14,1007.28,2054.02,3550.23,3127.99,3545.94,599.94,601.32,16.92,0000 0000 0000 0000 000000
2016-07-10 02:18:53,0.00,0.13,0.00,17.68,23.50,27.29,14.77,47.18,1007.29,2054.01,3550.12,3127.98,3545.89,599.90,601.12,16.97,0000 0000 0000 0000 000000
2016-07-10 02:23:54,0.00,0.13,0.00,17.71,23.50,27.26,14.76,47.13,1007.33,2054.02,3550.08,3127.98,3545.89,600.03,601.42,17.02,0000 0000 0000 0000 000000
2016-07-10 02:28:55,0.02,0.13,0.00,17.65,23.50,27.30,14.81,47.03,1007.31,2054.17,3550.00,3127.98,3545.96,600.04,601.49,17.07,0000 0000 0000 0000 000000
2016-07-10 02:33:56,0.00,0.13,0.00,17.67,23.51,27.26,14.78,47.17,1007.33,2054.26,3550.00,3127.98,3545.95,600.01,601.42,17.12,0000 0000 0000 0000 000000
2016-07-10 02:38:57,-0.01,0.13,0.00,17.67,23.51,27.27,14.84,47.25,1007.31,2054.25,3550.00,3127.98,3545.94,600.24,601.57,17.17,0000 0000 0000 0000 000000
2016-07-10 02:43:59,0.03,0.13,0.00,17.67,23.52,27.28,14.78,47.17,1007.24,2054.53,3550.00,3127.98,3545.89,600.07,601.50,17.22,0000 0000 0000 0000 000000
2016-07-10 02:49:00,-0.01,0.13,0.00,17.70,23.52,27.29,14.74,47.04,1007.17,2054.20,3549.99,3127.73,3545.20,600.25,601.59,17.27,0000 0000 0000 0000 000000
2016-07-10 02:54:01,0.00,0.13,0.00,17.72,23.52,27.31,14.76,47.13,1007.16,2054.21,3549.98,3127.46,3545.05,599.88,601.04,17.32,0000 0000 0000 0000 000000
2016-07-10 02:59:02,0.01,0.13,0.00,17.72,23.52,27.22,14.78,47.13,1007.25,2054.25,3549.98,3127.60,3545.07,599.85,601.04,17.37,0000 0000 0000 0000 000000
2016-07-10 03:04:04,-0.00,0.13,0.00,17.72,23.52,27.20,14.77,47.09,1007.14,2054.26,3549.98,3127.62,3545.08,599.72,600.90,17.42,0000 0000 0000 0000 000000
2016-07-10 03:09:05,-0.00,0.13,0.00,17.73,23.52,27.32,14.75,47.05,1007.21,2054.21,3549.97,3127.34,3545.04,600.15,601.37,17.47,0000 0000 0000 0000 000000
2016-07-10 03:14:06,0.01,0.13,0.00,17.72,23.52,27.30,14.74,47.15,1007.14,2054.20,3549.93,3127.11,3545.00,599.67,600.88,17.52,0000 0000 0000 0000 000000
2016-07-10 03:19:08,-0.00,0.13,0.00,17.73,23.53,27.29,14.73,47.03,1007.15,2054.10,3549.47,3127.02,3545.00,600.11,601.24,17.57,0000 0000 0000 0000 000000
2016-07-10 03:24:09,0.00,0.13,0.00,17.73,23.54,27.29,14.78,47.08,1007.15,2054.04,3549.16,3127.00,3544.97,599.91,601.10,17.62,0000 0000 0000 0000 000000
2016-07-10 03:29:10,0.00,0.14,0.00,17.71,23.55,27.32,14.75,47.04,1007.10,2054.04,3549.03,3127.00,3544.98,599.90,601.11,17.67,0000 0000 0000 0000 000000
2016-07-10 03:34:11,-0.00,0.14,0.00,17.73,23.55,27.31,14.80,47.22,1007.12,2054.03,3549.02,3127.00,3544.98,599.78,601.01,17.72,0000 0000 0000 0000 000000
2016-07-10 03:39:12,0.02,0.14,0.00,17.71,23.55,27.33,14.81,47.10,1007.03,2054.03,3549.00,3126.90,3544.56,600.09,601.33,17.77,0000 0000 0000 0000 000000
2016-07-10 03:44:14,0.01,0.14,0.00,17.74,23.56,27.26,14.77,47.12,1006.99,2054.04,3548.98,3126.43,3544.01,599.79,600.89,17.82,0000 0000 0000 0000 000000
2016-07-10 03:49:15,0.01,0.14,0.00,17.75,23.57,27.29,14.77,47.12,1007.23,2054.03,3548.98,3126.19,3544.00,599.92,601.10,17.87,0000 0000 0000 0000 000000
2016-07-10 03:54:16,0.00,0.14,0.00,17.78,23.57,27.29,14.77,47.06,1007.27,2054.03,3548.95,3126.11,3544.00,600.06,601.25,17.92,0000 0000 0000 0000 000000
2016-07-10 03:59:17,0.00,0.14,0.00,17.76,23.57,27.31,14.77,47.07,1007.28,2054.01,3548.77,3126.03,3543.99,599.68,600.92,17.97,0000 0000 0000 0000 000000
2016-07-10 04:04:19,0.00,0.14,0.00,17.77,23.57,27.27,14.81,47.04,1007.28,2054.00,3548.42,3126.02,3543.98,600.16,601.36,18.02,0000 0000 0000 0000 000000
2016-07-10 04:09:20,-0.00,0.14,0.00,17.76,23.59,27.27,14.71,47.07,1007.34,2054.01,3548.51,3126.02,3543.99,599.91,601.13,18.07,0000 0000 0000 0000 000000
2016-07-10 04:14:21,0.02,0.14,0.00,17.77,23.59,27.34,14.75,46.99,1007.34,2054.00,3548.09,3126.00,3543.43,599.94,601.26,18.12,0000 0000 0000 0000 000000
2016-07-10 04:19:23,0.00,0.14,0.00,17.79,23.60,27.32,14.70,47.05,1007.32,2054.00,3548.00,3125.96,3543.01,599.57,600.64,18.17,0000 0000 0000 0000 000000
2016-07-10 04:24:24,0.00,0.14,0.00,17.82,23.60,27.33,14.75,47.02,1007.29,2054.00,3547.99,3125.95,3543.02,600.03,601.05,18.22,0000 0000 0000 0000 000000
2016-07-10 04:29:26,0.00,0.14,0.00,17.86,23.61,27.31,14.74,47.12,1007.24,2054.00,3547.99,3125.93,3543.02,599.94,600.91,18.27,0000 0000 0000 0000 000000
2016-07-10 04:34:27,0.06,0.14,0.00,17.85,23.62,27.29,14.72,47.05,1007.24,2054.00,3547.42,3125.18,3542.43,599.92,600.91,18.32,0000 0000 0000 0000 000000
2016-07-10 04:39:28,0.04,0.14,0.00,17.84,23.62,27.36,14.76,47.38,1007.20,2054.00,3546.04,3124.01,3541.03,600.09,600.99,18.37,0000 0000 0000 0000 000000
2016-07-10 04:44:29,0.00,0.14,0.00,17.86,23.62,27.36,14.79,47.12,1007.09,2054.00,3546.00,3123.90,3540.99,600.01,600.92,18.42,0000 0000 0000 0000 000000
2016-07-10 04:49:31,-0.00,0.14,0.00,17.83,23.64,27.22,14.66,47.07,1007.11,2054.00,3545.99,3123.74,3540.97,599.84,600.76,18.47,0000 0000 0000 0000 000000
2016-07-10 04:54:32,-0.00,0.14,0.00,17.81,23.65,27.38,14.76,47.10,1006.93,2054.00,3545.99,3123.87,3540.97,600.12,600.92,18.52,0000 0000 0000 0000 000000
2016-07-10 04:59:33,0.01,0.14,0.00,17.83,23.65,27.36,14.77,47.11,1006.89,2054.00,3545.97,3123.52,3540.95,600.18,600.95,18.57,0000 0000 0000 0000 000000
2016-07-10 05:04:35,0.01,0.15,0.00,17.84,23.65,27.24,14.77,47.24,1006.88,2053.99,3545.89,3123.15,3540.68,600.05,600.85,18.62,0000 0000 0000 0000 000000
2016-07-10 05:09:36,0.07,0.15,0.00,17.88,23.65,27.33,14.78,47.15,1006.88,2053.99,3544.85,3122.12,3539.15,600.44,601.10,18.67,0000 0000 0000 0000 000000
2016-07-10 05:14:37,-0.00,0.15,0.00,17.89,23.67,27.34,14.70,47.08,1006.90,2053.98,3544.84,3122.00,3539.00,599.93,600.54,18.72,0000 0000 0000 0000 000000
2016-07-10 05:19:39,0.01,0.15,0.00,17.85,23.67,27.41,14.72,47.20,1006.87,2053.98,3544.70,3122.00,3539.00,599.80,600.52,18.77,0000 0000 0000 0000 000000
2016-07-10 05:24:40,0.00,0.15,0.00,17.87,23.67,27.33,14.75,47.16,1006.85,2053.98,3544.31,3121.99,3538.99,599.82,600.52,18.82,0000 0000 0000 0000 000000
2016-07-10 05:29:41,0.00,0.15,0.00,17.86,23.68,27.47,14.77,47.12,1006.85,2053.98,3544.19,3121.99,3538.98,600.22,600.92,18.87,0000 0000 0000 0000 000000
2016-07-10 05:34:43,-0.00,0.15,0.00,17.87,23.70,27.44,14.79,47.12,1006.86,2053.96,3544.01,3121.97,3538.91,600.02,600.84,18.92,0000 0000 0000 0000 000000
2016-07-10 05:39:44,0.00,0.15,0.00,17.89,23.70,27.38,14.67,46.93,1006.85,2053.96,3544.00,3121.97,3538.77,599.59,600.27,18.98,0000 0000 0000 0000 000000
2016-07-10 05:44:45,0.00,0.15,0.00,17.89,23.70,27.42,14.70,47.02,1006.85,2053.93,3544.00,3121.95,3538.53,599.63,600.20,19.03,0000 0000 0000 0000 000000
2016-07-10 05:49:46,-0.01,0.15,0.00,17.89,23.71,27.44,14.75,47.19,1006.85,2053.82,3544.00,3121.91,3538.22,600.10,600.64,19.08,0000 0000 0000 0000 000000
2016-07-10 05:54:47,0.01,0.15,0.00,17.92,23.72,27.38,14.76,47.07,1006.85,2053.74,3543.99,3121.70,3538.10,599.76,600.43,19.13,0000 0000 0000 0000 000000
2016-07-10 05:59:49,0.06,0.15,0.00,17.92,23.72,27.42,14.72,47.27,1006.86,2053.84,3543.53,3120.85,3537.74,599.97,600.64,19.18,0000 0000 0000 0000 000000
2016-07-10 06:04:50,0.03,0.15,0.00,17.95,23.72,27.45,14.80,47.29,1006.86,2053.76,3542.23,3120.03,3536.99,600.21,600.81,19.23,0000 0000 0000 0000 000000
2016-07-10 06:09:51,0.02,0.16,0.00,17.94,23.74,27.47,14.77,47.23,1006.85,2053.94,3542.00,3119.99,3536.73,600.29,600.85,19.28,0000 0000 0000 0000 000000
2016-07-10 06:14:52,0.03,0.16,0.00,17.97,23.75,27.44,14.67,46.98,1006.87,2053.97,3541.71,3119.54,3536.06,599.69,600.42,19.33,0000 0000 0000 0000 000000
2016-07-10 06:19:54,0.01,0.16,0.00,17.99,23.75,27.43,14.73,47.17,1006.95,2053.97,3541.06,3119.02,3535.87,600.16,600.68,19.38,0000 0000 0000 0000 000000
2016-07-10 06:24:55,0.01,0.16,0.00,17.99,23.75,27.51,14.73,47.20,1007.00,2053.97,3540.88,3118.96,3535.23,599.97,600.62,19.43,0000 0000 0000 0000 000000
2016-07-10 06:29:57,0.03,0.16,0.00,18.02,23.75,27.43,14.70,47.11,1006.99,2053.96,3540.14,3118.34,3535.00,599.79,600.34,19.48,0000 0000 0000 0000 000000
2016-07-10 06:34:58,0.01,0.16,0.00,18.00,23.75,27.42,14.75,47.27,1007.11,2053.95,3540.00,3118.00,3534.95,600.11,600.66,19.53,0000 0000 0000 0000 000000
2016-07-10 06:39:59,0.00,0.16,0.00,18.02,23.77,27.50,14.70,47.20,1007.28,2053.94,3540.00,3118.00,3534.73,599.60,600.31,19.58,0000 0000 0000 0000 000000
2016-07-10 06:45:01,0.01,0.16,0.00,18.03,23.77,27.42,14.78,47.38,1007.31,2053.96,3539.99,3118.00,3534.42,600.16,600.85,19.63,0000 0000 0000 0000 000000
2016-07-10 06:50:02,0.00,0.16,0.00,18.06,23.77,27.40,14.76,47.16,1007.34,2053.97,3539.99,3118.00,3534.26,599.88,600.54,19.68,0000 0000 0000 0000 000000
2016-07-10 06:55:03,0.00,0.16,0.00,18.02,23.77,27.45,14.82,47.19,1007.33,2053.98,3539.98,3118.00,3534.15,599.85,600.56,19.73,0000 0000 0000 0000 000000
2016-07-10 07:00:04,0.02,0.16,0.00,18.02,23.77,27.52,14.81,47.36,1007.34,2053.93,3539.49,3117.67,3534.01,600.23,600.86,19.78,0000 0000 0000 0000 000000
2016-07-10 07:05:06,0.02,0.16,0.00,18.03,23.78,27.49,14.81,47.30,1007.34,2053.92,3539.00,3117.02,3533.42,600.15,600.87,19.83,0000 0000 0000 0000 000000
2016-07-10 07:10:07,-0.01,0.16,0.00,18.03,23.79,27.46,14.73,47.17,1007.34,2053.78,3538.96,3116.98,3533.00,599.69,600.35,19.88,0000 0000 0000 0000 000000
2016-07-10 07:15:08,0.02,0.16,0.00,18.06,23.80,27.52,14.75,47.10,1007.34,2053.79,3538.74,3116.86,3533.00,600.20,600.84,19.93,0000 0000 0000 0000 000000
2016-07-10 07:20:09,0.04,0.17,0.00,18.07,23.80,27.50,14.69,47.10,1007.34,2053.92,3538.02,3116.09,3532.65,600.10,600.73,19.98,0000 0000 0000 0000 000000
2016-07-10 07:25:10,0.06,0.17,0.00,18.06,23.80,27.56,14.86,47.27,1007.35,2053.92,3536.84,3115.45,3531.64,600.22,600.77,20.03,0000 0000 0000 0000 000000
2016-07-10 07:30:11,0.05,0.17,0.00,18.08,23.80,27.57,14.71,46.94,1007.35,2053.85,3535.08,3114.12,3530.17,599.60,600.22,20.08,0000 0000 0000 0000 000000
2016-07-10 07:35:13,0.00,0.17,0.00,18.11,23.81,27.60,14.69,47.02,1007.35,2053.90,3535.00,3114.01,3530.03,599.82,600.46,20.13,0000 0000 0000 0000 000000
2016-07-10 07:40:14,0.00,0.17,0.00,18.08,23.82,27.50,14.80,46.99,1007.36,2053.95,3534.99,3114.00,3530.03,599.96,600.61,20.18,0000 0000 0000 0000 000000
2016-07-10 07:45:15,0.04,0.17,0.00,18.09,23.82,27.54,14.72,47.12,1007.36,2053.95,3534.30,3113.68,3529.69,600.10,600.66,20.23,0000 0000 0000 0000 000000
2016-07-10 07:50:16,0.00,0.18,0.00,18.08,23.82,27.53,14.69,47.08,1007.37,2053.84,3533.94,3113.02,3529.02,599.90,600.44,20.28,0000 0000 0000 0000 000000
2016-07-10 07:55:17,-0.04,0.17,0.00,18.11,23.82,27.57,14.69,46.97,1007.36,2053.40,3533.87,3113.00,3529.00,599.76,600.25,20.33,0000 0000 0000 0000 000000
2016-07-10 08:00:18,0.04,0.17,0.00,18.12,23.83,27.52,14.80,47.11,1007.38,2053.52,3533.09,3113.00,3528.85,600.26,600.71,20.38,0000 0000 0000 0000 000000
2016-07-10 08:05:19,-0.01,0.17,0.00,18.13,23.84,27.52,14.75,47.01,1007.41,2053.36,3533.00,3112.89,3528.38,599.98,600.47,20.43,0000 0000 0000 0000 000000
2016-07-10 08:10:20,0.00,0.17,0.00,18.12,23.85,27.55,14.74,47.02,1007.37,2053.13,3532.96,3112.36,3528.04,599.79,600.33,20.48,0000 0000 0000 0000 000000
2016-07-10 08:15:22,0.00,0.17,0.00,18.11,23.85,27.45,14.75,47.01,1007.35,2053.10,3532.90,3112.15,3528.02,600.08,600.58,20.53,0000 0000 0000 0000 000000
2016-07-10 08:20:23,0.00,0.17,0.00,18.11,23.85,27.56,14.78,46.98,1007.36,2053.07,3532.95,3112.09,3528.01,600.05,600.60,20.58,0000 0000 0000 0000 000000
2016-07-10 08:25:24,-0.00,0.17,0.00,18.07,23.87,27.57,14.76,47.17,1007.40,2053.03,3532.95,3112.06,3528.00,599.86,600.56,20.63,0000 0000 0000 0000 000000
2016-07-10 08:30:25,-0.00,0.17,0.00,18.10,23.87,27.58,14.75,47.06,1007.43,2053.03,3532.89,3112.03,3528.00,600.09,600.64,20.68,0000 0000 0000 0000 000000
2016-07-10 08:35:26,0.00,0.17,0.00,18.15,23.87,27.61,14.70,47.08,1007.54,2053.01,3532.65,3112.02,3527.99,599.97,600.45,20.73,0000 0000 0000 0000 000000
2016-07-10 08:40:27,0.01,0.18,0.00,18.16,23.87,27.64,14.77,46.97,1007.72,2053.01,3532.18,3112.00,3527.99,599.98,600.61,20.78,0000 0000 0000 0000 000000
2016-07-10 08:45:28,0.00,0.18,0.00,18.18,23.88,27.64,14.72,46.88,1007.78,2053.02,3532.02,3112.00,3527.96,599.99,600.60,20.83,0000 0000 0000 0000 000000
2016-07-10 08:50:30,0.00,0.18,0.00,18.19,23.89,27.66,14.77,47.18,1007.82,2053.01,3532.00,3111.99,3527.74,600.34,600.97,20.88,0000 0000 0000 0000 000000
2016-07-10 08:55:31,0.00,0.18,0.00,18.19,23.90,27.69,14.75,47.01,1007.82,2053.02,3532.00,3111.99,3527.71,599.96,600.55,20.93,0000 0000 0000 0000 000000
2016-07-10 09:00:32,0.00,0.18,0.00,18.19,23.90,27.64,14.80,46.95,1007.82,2053.01,3531.99,3111.98,3527.37,600.12,600.84,20.98,0000 0000 0000 0000 000000
2016-07-10 09:05:34,0.00,0.18,0.00,18.21,23.90,27.64,14.71,47.02,1007.82,2053.00,3531.99,3111.97,3527.07,599.95,600.52,21.03,0000 0000 0000 0000 000000
2016-07-10 09:10:35,0.01,0.18,0.00,18.20,23.90,27.67,14.71,47.00,1007.81,2053.00,3531.89,3111.76,3527.02,599.85,600.46,21.08,0000 0000 0000 0000 000000
2016-07-10 09:15:36,0.00,0.18,0.00,18.19,23.90,27.63,14.78,47.16,1007.83,2053.00,3531.86,3111.65,3527.01,600.50,601.09,21.13,0000 0000 0000 0000 000000
2016-07-10 09:20:38,0.01,0.18,0.00,18.21,23.90,27.59,14.75,46.93,1007.82,2053.00,3531.68,3111.31,3527.00,599.89,600.45,21.18,0000 0000 0000 0000 000000
2016-07-10 09:25:39,0.01,0.18,0.00,18.18,23.91,27.59,14.76,47.12,1007.83,2053.00,3531.26,3111.12,3526.99,600.01,600.66,21.23,0000 0000 0000 0000 000000
2016-07-10 09:30:40,0.00,0.18,0.00,18.18,23.92,27.68,14.74,47.14,1007.83,2053.00,3531.00,3111.01,3526.98,600.05,600.66,21.28,0000 0000 0000 0000 000000
2016-07-10 09:35:42,0.00,0.18,0.00,18.17,23.92,27.66,14.81,47.28,1007.83,2053.00,3531.01,3111.00,3526.94,600.06,600.58,21.33,0000 0000 0000 0000 000000
2016-07-10 09:40:43,0.00,0.18,0.00,18.15,23.92,27.68,14.78,46.98,1007.83,2053.00,3531.00,3111.01,3526.96,599.88,600.59,21.38,0000 0000 0000 0000 000000
2016-07-10 09:45:44,0.00,0.18,0.00,18.17,23.92,27.60,14.67,47.04,1007.83,2053.00,3531.00,3111.01,3526.89,599.77,600.49,21.43,0000 0000 0000 0000 000000
2016-07-10 09:50:45,0.00,0.18,0.00,18.15,23.92,27.53,14.85,47.04,1007.83,2053.00,3531.00,3111.00,3526.81,600.46,601.06,21.48,0000 0000 0000 0000 000000
2016-07-10 09:55:46,0.00,0.18,0.00,18.16,23.93,27.53,14.76,47.10,1007.83,2052.99,3531.00,3111.00,3526.62,600.10,600.80,21.53,0000 0000 0000 0000 000000
2016-07-10 10:00:48,0.00,0.18,0.00,18.17,23.94,27.60,14.74,46.99,1007.83,2052.99,3531.00,3110.99,3526.35,600.19,600.81,21.58,0000 0000 0000 0000 000000
2016-07-10 10:05:49,-0.00,0.18,0.00,18.18,23.95,27.67,14.75,47.08,1007.83,2052.99,3530.99,3110.99,3526.32,599.74,600.39,21.63,0000 0000 0000 0000 000000
2016-07-10 10:10:50,0.00,0.18,0.00,18.18,23.95,27.59,14.71,47.13,1007.84,2052.99,3530.98,3110.98,3526.08,599.88,600.61,21.68,0000 0000 0000 0000 000000
2016-07-10 10:15:51,0.00,0.18,0.00,18.20,23.95,27.66,14.75,47.08,1007.85,2052.98,3530.99,3110.98,3526.06,599.95,600.44,21.73,0000 0000 0000 0000 000000
2016-07-10 10:20:52,0.00,0.18,0.00,18.23,23.95,27.70,14.73,47.07,1007.84,2052.99,3530.99,3110.99,3526.10,599.92,600.66,21.78,0000 0000 0000 0000 000000
2016-07-10 10:25:53,0.00,0.18,0.00,18.18,23.95,27.66,14.74,47.12,1007.85,2052.99,3530.99,3110.99,3526.10,600.01,600.73,21.83,0000 0000 0000 0000 000000
2016-07-10 10:30:55,0.00,0.18,0.00,18.16,23.95,27.72,14.71,47.08,1007.84,2052.99,3530.99,3110.99,3526.07,599.83,600.56,21.88,0000 0000 0000 0000 000000
2016-07-10 10:35:56,0.00,0.18,0.00,18.16,23.95,27.69,14.78,47.10,1007.84,2052.98,3530.97,3110.97,3526.03,599.95,600.71,21.93,0000 0000 0000 0000 000000
2016-07-10 10:40:57,0.03,0.18,0.00,18.18,23.95,27.70,14.85,47.07,1007.84,2052.98,3530.34,3110.54,3525.99,600.31,600.94,21.98,0000 0000 0000 0000 000000
2016-07-10 10:45:59,0.01,0.18,0.00,18.21,23.95,27.73,14.75,47.08,1007.86,2052.98,3530.00,3110.02,3525.78,600.01,600.61,22.03,0000 0000 0000 0000 000000
2016-07-10 10:51:00,0.01,0.18,0.00,18.19,23.95,27.73,14.80,47.13,1007.88,2052.99,3529.76,3110.00,3525.31,600.20,600.86,22.08,0000 0000 0000 0000 000000
2016-07-10 10:56:01,0.04,0.18,0.00,18.16,23.95,27.66,14.78,47.05,1007.90,2052.98,3528.88,3109.55,3524.94,600.11,600.87,22.13,0000 0000 0000 0000 000000
2016-07-10 11:01:02,0.02,0.18,0.00,18.19,23.95,27.69,14.59,46.88,1007.94,2052.98,3528.09,3109.02,3524.36,599.72,600.18,22.18,0000 0000 0000 0000 000000
2016-07-10 11:06:03,0.03,0.19,0.00,18.22,23.95,27.73,14.75,47.08,1008.07,2052.98,3527.72,3108.71,3523.75,599.93,600.66,22.23,0000 0000 0000 0000 000000
2016-07-10 11:11:04,0.06,0.19,0.00,18.21,23.95,27.75,14.84,46.98,1008.13,2052.98,3526.51,3107.64,3522.73,600.19,600.99,22.28,0000 0000 0000 0000 000000
2016-07-10 11:16:06,0.04,0.19,0.00,18.20,23.95,27.66,14.84,47.13,1008.05,2052.98,3525.43,3106.88,3521.81,600.33,601.03,22.33,0000 0000 0000 0000 000000
2016-07-10 11:21:07,0.05,0.19,0.00,18.19,23.95,27.74,14.73,47.09,1007.98,2052.99,3524.31,3106.04,3520.92,600.07,600.83,22.38,0000 0000 0000 0000 000000
2016-07-10 11:26:08,0.02,0.20,0.00,18.22,23.95,27.74,14.75,46.97,1007.90,2052.97,3524.00,3105.77,3520.18,599.85,600.52,22.43,0000 0000 0000 0000 000000
2016-07-10 11:31:09,-0.00,0.20,0.00,18.22,23.95,27.74,14.77,46.87,1007.88,2052.96,3523.99,3105.75,3520.03,600.07,600.75,22.48,0000 0000 0000 0000 000000
2016-07-10 11:36:10,0.01,0.20,0.00,18.19,23.95,27.71,14.74,46.88,1007.87,2052.96,3523.96,3105.30,3520.01,600.02,600.70,22.53,0000 0000 0000 0000 000000
2016-07-10 11:41:12,-0.00,0.20,0.00,18.20,23.95,27.74,14.75,46.95,1007.87,2052.92,3523.91,3105.07,3520.00,599.76,600.38,22.58,0000 0000 0000 0000 000000
2016-07-10 11:46:13,0.01,0.20,0.00,18.22,23.95,27.76,14.70,47.02,1007.90,2052.95,3523.44,3105.00,3520.00,599.81,600.54,22.63,0000 0000 0000 0000 000000
2016-07-10 11:51:15,-0.00,0.20,0.00,18.19,23.95,27.67,14.78,47.08,1007.95,2052.96,3523.40,3105.00,3520.00,600.10,600.75,22.68,0000 0000 0000 0000 000000
2016-07-10 11:56:16,-0.00,0.20,0.00,18.18,23.95,27.66,14.76,47.09,1007.91,2052.97,3523.61,3105.00,3520.00,599.89,600.65,22.73,0000 0000 0000 0000 000000
2016-07-10 12:01:18,-0.01,0.20,0.00,18.19,23.94,27.70,14.75,46.97,1007.88,2052.95,3523.84,3105.01,3519.99,599.77,600.49,22.78,0000 0000 0000 0000 000000
2016-07-10 12:06:19,0.00,0.20,0.00,18.13,23.94,27.65,14.76,47.02,1007.85,2052.94,3523.61,3105.01,3519.98,599.83,600.61,22.83,0000 0000 0000 0000 000000
2016-07-10 12:11:20,0.00,0.20,0.00,18.15,23.93,27.69,14.73,47.06,1007.84,2052.94,3523.18,3105.00,3519.98,600.01,600.80,22.89,0000 0000 0000 0000 000000
2016-07-10 12:16:21,0.01,0.20,0.00,18.17,23.93,27.65,14.71,46.92,1007.84,2052.98,3523.02,3104.99,3519.74,600.01,600.65,22.94,0000 0000 0000 0000 000000
2016-07-10 12:21:22,0.04,0.20,0.00,18.15,23.92,27.71,14.75,46.92,1007.84,2052.98,3522.54,3104.44,3519.04,599.99,600.71,22.99,0000 0000 0000 0000 000000
2016-07-10 12:26:23,0.01,0.20,0.00,18.14,23.92,27.73,14.68,46.94,1007.83,2052.99,3522.02,3104.01,3518.99,599.76,600.55,23.04,0000 0000 0000 0000 000000
2016-07-10 12:31:24,0.03,0.20,0.00,18.16,23.92,27.71,14.79,47.02,1007.83,2052.98,3521.61,3103.69,3518.39,599.79,600.49,23.09,0000 0000 0000 0000 000000
2016-07-10 12:36:25,0.01,0.20,0.00,18.15,23.92,27.68,14.83,47.17,1007.83,2052.99,3521.01,3103.02,3518.00,600.14,600.92,23.14,0000 0000 0000 0000 000000
2016-07-10 12:41:27,0.00,0.20,0.00,18.12,23.92,27.67,14.77,46.95,1007.83,2052.99,3520.99,3103.00,3517.97,599.86,600.58,23.19,0000 0000 0000 0000 000000
2016-07-10 12:46:28,0.00,0.20,0.00,18.10,23.91,27.67,14.83,47.18,1007.83,2052.99,3520.98,3103.00,3517.84,600.26,600.96,23.24,0000 0000 0000 0000 000000
2016-07-10 12:51:29,0.04,0.20,0.00,18.11,23.90,27.68,14.71,46.88,1007.83,2052.99,3520.40,3102.63,3517.17,600.05,600.85,23.29,0000 0000 0000 0000 000000
2016-07-10 12:56:30,0.01,0.21,0.00,18.11,23.90,27.65,14.78,47.07,1007.83,2052.99,3520.00,3102.03,3516.86,599.74,600.53,23.34,0000 0000 0000 0000 000000